QPF
0.00 0.00 0.00 0.00 0.00 0.00 0.00 0.00 0.00 0.00 0.00 0.00 0.00 0.00 0.00 0.00 0.00 0.00 0.00 0.00 0.00 0.00 0.00 0.00 0.00 0.00 0.01 0.02 0.03 0.05 0.06 0.06 0.05 0.04 0.04 0.08 0.11 0.16 0.19 0.18 0.15 0.11 0.09 0.08
0.00 0.00 0.00 0.00 0.00 0.00 0.00 0.00 0.00 0.00 0.00 0.00 0.00 0.00 0.00 0.00 0.00 0.00 0.00 0.00 0.00 0.00 0.00 0.00 0.00 0.00 0.00 0.01 0.01 0.01 0.01 0.01 0.01 0.01 0.02 0.03 0.06 0.09 0.11 0.11 0.12 0.10 0.11 0.12
0.00 0.00 0.00 0.00 0.00 0.00 0.00 0.00 0.00 0.00 0.00 0.00 0.00 0.00 0.00 0.00 0.00 0.00 0.00 0.00 0.00 0.00 0.00 0.00 0.00 0.00 0.00 0.00 0.00 0.00 0.00 0.01 0.01 0.00 0.01 0.02 0.03 0.03 0.04 0.04 0.05 0.06 0.09 0.11
0.00 0.00 0.00 0.00 0.00 0.00 0.00 0.00 0.00 0.00 0.00 0.00 0.00 0.00 0.00 0.00 0.00 0.00 0.00 0.00 0.00 0.00 0.00 0.00 0.00 0.00 0.00 0.00 0.00 0.00 0.00 0.01 0.01 0.01 0.01 0.02 0.03 0.03 0.03 0.03 0.04 0.05 0.06 0.07
0.00 0.00 0.00 0.00 0.00 0.00 0.00 0.00 0.00 0.00 0.00 0.00 0.00 0.00 0.00 0.00 0.00 0.01 0.01 0.01 0.00 0.00 0.00 0.00 0.00 0.00 0.00 0.00 0.00 0.00 0.00 0.00 0.01 0.02 0.02 0.02 0.01 0.01 0.01 0.03 0.04 0.04 0.04 0.03
0.00 0.00 0.00 0.00 0.00 0.00 0.00 0.00 0.00 0.00 0.00 0.00 0.00 0.00 0.00 0.00 0.00 0.01 0.02 0.02 0.00 0.00 0.00 0.00 0.00 0.00 0.00 0.00 0.00 0.00 0.00 0.00 0.00 0.01 0.02 0.03 0.02 0.02 0.03 0.04 0.05 0.06 0.05 0.03
0.00 0.00 0.00 0.00 0.00 0.00 0.00 0.00 0.00 0.00 0.00 0.00 0.01 0.00 0.00 0.00 0.00 0.00 0.00 0.00 0.00 0.00 0.00 0.00 0.00 0.00 0.00 0.00 0.00 0.00 0.00 0.00 0.00 0.01 0.02 0.03 0.04 0.05 0.05 0.06 0.07 0.07 0.06 0.05
0.00 0.00 0.00 0.00 0.00 0.00 0.00 0.00 0.00 0.00 0.00 0.00 0.00 0.00 0.00 0.00 0.00 0.00 0.00 0.00 0.00 0.00 0.00 0.00 0.00 0.00 0.00 0.00 0.00 0.00 0.00 0.00 0.01 0.02 0.03 0.04 0.05 0.06 0.06 0.10 0.13 0.10 0.06 0.05
0.00 0.00 0.00 0.00 0.00 0.00 0.00 0.00 0.00 0.00 0.00 0.00 0.00 0.00 0.00 0.00 0.00 0.00 0.00 0.00 0.00 0.00 0.00 0.00 0.00 0.00 0.00 0.00 0.00 0.00 0.00 0.01 0.01 0.01 0.02 0.03 0.04 0.06 0.11 0.14 0.13 0.08 0.05 0.03
0.00 0.00 0.00 0.00 0.00 0.00 0.00 0.00 0.00 0.00 0.00 0.00 0.00 0.00 0.00 0.00 0.00 0.00 0.00 0.00 0.00 0.00 0.00 0.00 0.00 0.00 0.00 0.00 0.00 0.00 0.00 0.01 0.00 0.00 0.00 0.02 0.06 0.12 0.17 0.21 0.15 0.08 0.05 0.02
0.00 0.00 0.00 0.00 0.00 0.00 0.00 0.00 0.00 0.00 0.00 0.00 0.00 0.00 0.00 0.00 0.00 0.00 0.00 0.00 0.00 0.00 0.00 0.00 0.00 0.00 0.00 0.00 0.00 0.00 0.00 0.01 0.00 0.01 0.01 0.06 0.14 0.17 0.23 0.36 0.32 0.14 0.05 0.02
0.00 0.00 0.00 0.00 0.00 0.00 0.00 0.00 0.00 0.00 0.00 0.00 0.00 0.00 0.00 0.00 0.00 0.00 0.00 0.00 0.00 0.00 0.00 0.00 0.00 0.00 0.00 0.00 0.00 0.00 0.00 0.01 0.01 0.00 0.01 0.04 0.14 0.18 0.21 0.26 0.27 0.17 0.10 0.05
0.00 0.00 0.00 0.00 0.00 0.00 0.00 0.00 0.00 0.00 0.00 0.00 0.00 0.00 0.00 0.00 0.00 0.00 0.00 0.00 0.00 0.00 0.00 0.00 0.00 0.00 0.00 0.00 0.00 0.00 0.00 0.01 0.01 0.01 0.02 0.04 0.06 0.07 0.08 0.09 0.11 0.13 0.12 0.10
0.00 0.00 0.00 0.00 0.00 0.00 0.00 0.00 0.00 0.00 0.00 0.00 0.00 0.00 0.00 0.00 0.00 0.00 0.00 0.00 0.00 0.00 0.00 0.00 0.00 0.00 0.00 0.00 0.00 0.00 0.00 0.00 0.00 0.01 0.02 0.02 0.02 0.02 0.02 0.05 0.08 0.12 0.11 0.07
0.00 0.00 0.00 0.00 0.00 0.00 0.00 0.00 0.00 0.00 0.00 0.00 0.00 0.00 0.00 0.00 0.00 0.00 0.00 0.00 0.00 0.00 0.00 0.00 0.00 0.00 0.00 0.00 0.00 0.00 0.00 0.00 0.00 0.01 0.05 0.05 0.03 0.01 0.01 0.03 0.05 0.06 0.05 0.02
0.00 0.00 0.00 0.00 0.00 0.00 0.00 0.00 0.00 0.00 0.00 0.00 0.00 0.00 0.00 0.00 0.00 0.00 0.00 0.00 0.00 0.00 0.00 0.00 0.00 0.00 0.00 0.00 0.01 0.00 0.00 0.00 0.02 0.05 0.10 0.13 0.09 0.04 0.01 0.01 0.01 0.03 0.02 0.01
0.00 0.00 0.00 0.00 0.00 0.00 0.00 0.00 0.00 0.00 0.00 0.00 0.00 0.00 0.00 0.00 0.00 0.00 0.00 0.00 0.00 0.00 0.00 0.00 0.00 0.00 0.00 0.00 0.01 0.02 0.02 0.02 0.08 0.10 0.08 0.14 0.14 0.04 0.00 0.00 0.01 0.02 0.00 0.00
0.00 0.00 0.00 0.00 0.00 0.00 0.00 0.00 0.00 0.00 0.00 0.00 0.00 0.00 0.00 0.00 0.00 0.00 0.00 0.00 0.00 0.00 0.00 0.00 0.00 0.00 0.00 0.00 0.00 0.01 0.04 0.04 0.10 0.12 0.07 0.11 0.12 0.04 0.02 0.02 0.02 0.01 0.00 0.02
0.00 0.00 0.00 0.00 0.00 0.00 0.00 0.00 0.00 0.00 0.00 0.00 0.00 0.00 0.00 0.00 0.00 0.00 0.00 0.00 0.00 0.00 0.00 0.00 0.00 0.00 0.00 0.00 0.00 0.01 0.05 0.07 0.06 0.06 0.03 0.08 0.12 0.07 0.05 0.04 0.04 0.01 0.01 0.04
0.00 0.00 0.00 0.00 0.00 0.00 0.00 0.00 0.00 0.00 0.00 0.00 0.00 0.00 0.00 0.00 0.01 0.00 0.00 0.00 0.00 0.00 0.00 0.00 0.00 0.00 0.00 0.00 0.00 0.00 0.01 0.03 0.04 0.02 0.01 0.05 0.13 0.14 0.09 0.06 0.04 0.02 0.03 0.05
0.00 0.00 0.00 0.00 0.00 0.00 0.00 0.00 0.00 0.02 0.03 0.01 0.00 0.00 0.00 0.01 0.01 0.00 0.00 0.00 0.00 0.00 0.00 0.00 0.00 0.00 0.00 0.00 0.00 0.00 0.00 0.00 0.01 0.01 0.02 0.03 0.11 0.19 0.17 0.12 0.07 0.04 0.02 0.04
0.00 0.00 0.00 0.00 0.01 0.01 0.00 0.00 0.02 0.04 0.02 0.01 0.01 0.00 0.00 0.01 0.00 0.00 0.01 0.01 0.00 0.00 0.01 0.01 0.01 0.01 0.01 0.01 0.00 0.00 0.00 0.00 0.00 0.01 0.02 0.05 0.12 0.12 0.16 0.14 0.12 0.10 0.04 0.03
0.00 0.00 0.00 0.00 0.02 0.01 0.00 0.00 0.02 0.01 0.02 0.02 0.01 0.01 0.01 0.01 0.02 0.02 0.03 0.02 0.01 0.01 0.01 0.03 0.03 0.04 0.05 0.05 0.04 0.02 0.00 0.00 0.00 0.01 0.02 0.04 0.07 0.12 0.19 0.16 0.10 0.09 0.06 0.04
0.00 0.00 0.00 0.01 0.01 0.00 0.00 0.01 0.02 0.01 0.02 0.01 0.01 0.01 0.01 0.02 0.04 0.05 0.05 0.04 0.03 0.02 0.02 0.03 0.04 0.07 0.11 0.15 0.16 0.07 0.02 0.00 0.00 0.01 0.03 0.04 0.06 0.11 0.16 0.19 0.14 0.11 0.08 0.06
0.00 0.00 0.01 0.02 0.01 0.00 0.01 0.01 0.01 0.01 0.01 0.01 0.00 0.01 0.02 0.04 0.05 0.06 0.06 0.06 0.04 0.03 0.01 0.02 0.04 0.07 0.11 0.19 0.27 0.18 0.06 0.02 0.01 0.02 0.03 0.03 0.05 0.07 0.10 0.13 0.14 0.13 0.10 0.04
0.00 0.00 0.00 0.01 0.00 0.00 0.00 0.00 0.00 0.00 0.01 0.01 0.01 0.01 0.02 0.03 0.04 0.04 0.04 0.04 0.03 0.02 0.01 0.01 0.03 0.07 0.10 0.15 0.24 0.25 0.18 0.07 0.02 0.02 0.02 0.02 0.02 0.04 0.05 0.06 0.04 0.03 0.03 0.01
MSLP
1009.62 1009.90 1010.02 1010.00 1009.90 1009.74 1009.57 1009.41 1009.24 1009.06 1008.85 1008.59 1008.31 1008.03 1007.81 1007.69 1007.71 1007.90 1008.23 1008.66 1009.12 1009.53 1009.83 1009.97 1009.96 1009.82 1009.61 1009.40 1009.27 1009.24 1009.34 1009.54 1009.79 1010.02 1010.18 1010.22 1010.12 1009.90 1009.61 1009.29 1009.01 1008.82 1008.75 1008.81
1010.03 1010.24 1010.31 1010.27 1010.17 1010.05 1009.95 1009.87 1009.79 1009.68 1009.50 1009.26 1008.96 1008.63 1008.33 1008.14 1008.09 1008.21 1008.50 1008.90 1009.35 1009.77 1010.07 1010.20 1010.17 1010.00 1009.76 1009.51 1009.33 1009.27 1009.35 1009.54 1009.79 1010.03 1010.19 1010.23 1010.12 1009.87 1009.52 1009.14 1008.80 1008.55 1008.44 1008.46
1010.34 1010.47 1010.49 1010.45 1010.38 1010.35 1010.35 1010.39 1010.41 1010.38 1010.26 1010.02 1009.68 1009.27 1008.86 1008.54 1008.37 1008.39 1008.59 1008.93 1009.35 1009.75 1010.05 1010.20 1010.18 1010.02 1009.77 1009.51 1009.31 1009.23 1009.28 1009.45 1009.69 1009.91 1010.07 1010.09 1009.96 1009.68 1009.29 1008.87 1008.49 1008.20 1008.05 1008.05
1010.52 1010.57 1010.55 1010.52 1010.52 1010.59 1010.73 1010.90 1011.06 1011.13 1011.06 1010.83 1010.43 1009.92 1009.38 1008.91 1008.57 1008.43 1008.50 1008.74 1009.10 1009.47 1009.78 1009.96 1009.98 1009.85 1009.64 1009.40 1009.20 1009.11 1009.15 1009.29 1009.49 1009.69 1009.82 1009.81 1009.65 1009.35 1008.94 1008.49 1008.09 1007.78 1007.61 1007.61
1010.57 1010.55 1010.50 1010.49 1010.57 1010.76 1011.04 1011.38 1011.68 1011.86 1011.86 1011.63 1011.18 1010.57 1009.88 1009.23 1008.70 1008.38 1008.29 1008.40 1008.67 1009.00 1009.31 1009.52 1009.60 1009.54 1009.39 1009.20 1009.03 1008.95 1008.97 1009.08 1009.25 1009.41 1009.49 1009.46 1009.27 1008.95 1008.53 1008.08 1007.67 1007.36 1007.19 1007.19
1010.54 1010.45 1010.38 1010.40 1010.55 1010.86 1011.29 1011.77 1012.21 1012.50 1012.57 1012.36 1011.88 1011.18 1010.35 1009.53 1008.81 1008.30 1008.03 1007.99 1008.16 1008.43 1008.73 1008.97 1009.11 1009.14 1009.07 1008.95 1008.84 1008.78 1008.80 1008.89 1009.01 1009.13 1009.17 1009.10 1008.90 1008.57 1008.16 1007.72 1007.32 1007.02 1006.85 1006.84
1010.48 1010.33 1010.25 1010.30 1010.53 1010.93 1011.47 1012.08 1012.63 1013.02 1013.14 1012.96 1012.46 1011.70 1010.78 1009.81 1008.93 1008.24 1007.80 1007.62 1007.66 1007.87 1008.14 1008.41 1008.61 1008.72 1008.74 1008.70 1008.66 1008.64 1008.66 1008.74 1008.83 1008.91 1008.92 1008.83 1008.62 1008.30 1007.90 1007.49 1007.11 1006.82 1006.66 1006.64
1010.46 1010.28 1010.20 1010.27 1010.54 1011.00 1011.61 1012.28 1012.90 1013.36 1013.53 1013.38 1012.89 1012.11 1011.12 1010.06 1009.07 1008.24 1007.65 1007.34 1007.27 1007.40 1007.64 1007.92 1008.17 1008.35 1008.45 1008.50 1008.52 1008.54 1008.59 1008.66 1008.73 1008.78 1008.77 1008.67 1008.46 1008.17 1007.81 1007.43 1007.08 1006.81 1006.65 1006.61
1010.54 1010.37 1010.29 1010.37 1010.64 1011.10 1011.72 1012.39 1013.03 1013.49 1013.70 1013.57 1013.11 1012.34 1011.35 1010.26 1009.21 1008.30 1007.62 1007.20 1007.03 1007.09 1007.28 1007.55 1007.82 1008.05 1008.23 1008.34 1008.43 1008.49 1008.56 1008.63 1008.70 1008.73 1008.71 1008.62 1008.44 1008.18 1007.87 1007.54 1007.23 1006.98 1006.81 1006.74
1010.76 1010.62 1010.55 1010.62 1010.86 1011.26 1011.80 1012.41 1012.98 1013.41 1013.60 1013.49 1013.07 1012.35 1011.41 1010.36 1009.32 1008.39 1007.66 1007.18 1006.94 1006.92 1007.06 1007.30 1007.58 1007.83 1008.05 1008.22 1008.35 1008.46 1008.55 1008.63 1008.70 1008.73 1008.72 1008.64 1008.50 1008.29 1008.04 1007.76 1007.50 1007.28 1007.11 1007.01
1011.11 1011.02 1010.97 1011.01 1011.17 1011.46 1011.85 1012.31 1012.75 1013.08 1013.22 1013.11 1012.73 1012.09 1011.25 1010.29 1009.32 1008.44 1007.73 1007.22 1006.94 1006.86 1006.95 1007.15 1007.40 1007.65 1007.89 1008.09 1008.25 1008.38 1008.49 1008.59 1008.66 1008.71 1008.72 1008.67 1008.58 1008.43 1008.24 1008.03 1007.83 1007.64 1007.48 1007.36
1011.54 1011.51 1011.48 1011.47 1011.51 1011.64 1011.84 1012.10 1012.35 1012.54 1012.59 1012.46 1012.11 1011.57 1010.85 1010.03 1009.19 1008.40 1007.74 1007.26 1006.96 1006.84 1006.87 1007.02 1007.23 1007.46 1007.68 1007.89 1008.07 1008.22 1008.35 1008.46 1008.55 1008.61 1008.65 1008.64 1008.60 1008.52 1008.41 1008.27 1008.13 1007.99 1007.86 1007.75
1011.96 1012.00 1011.97 1011.89 1011.81 1011.75 1011.74 1011.76 1011.80 1011.81 1011.76 1011.59 1011.28 1010.83 1010.25 1009.59 1008.90 1008.25 1007.68 1007.23 1006.94 1006.79 1006.77 1006.85 1007.01 1007.20 1007.40 1007.59 1007.77 1007.93 1008.07 1008.20 1008.31 1008.40 1008.47 1008.52 1008.53 1008.52 1008.49 1008.43 1008.36 1008.29 1008.20 1008.11
1012.29 1012.38 1012.34 1012.19 1011.98 1011.75 1011.52 1011.32 1011.15 1011.00 1010.83 1010.62 1010.34 1009.99 1009.55 1009.05 1008.52 1008.00 1007.53 1007.14 1006.86 1006.68 1006.61 1006.63 1006.71 1006.84 1007.00 1007.17 1007.34 1007.51 1007.67 1007.82 1007.96 1008.08 1008.19 1008.29 1008.37 1008.43 1008.47 1008.49 1008.50 1008.50 1008.47 1008.43
1012.46 1012.57 1012.51 1012.31 1012.00 1011.62 1011.22 1010.84 1010.50 1010.21 1009.95 1009.72 1009.47 1009.20 1008.89 1008.54 1008.15 1007.76 1007.38 1007.03 1006.75 1006.53 1006.40 1006.34 1006.34 1006.41 1006.52 1006.65 1006.81 1006.98 1007.16 1007.33 1007.51 1007.68 1007.84 1007.99 1008.13 1008.26 1008.37 1008.47 1008.56 1008.62 1008.66 1008.68
1012.42 1012.54 1012.47 1012.24 1011.87 1011.41 1010.91 1010.42 1009.98 1009.61 1009.31 1009.06 1008.86 1008.66 1008.46 1008.22 1007.94 1007.64 1007.31 1006.98 1006.67 1006.40 1006.18 1006.03 1005.95 1005.93 1005.97 1006.07 1006.21 1006.38 1006.58 1006.79 1007.00 1007.22 1007.44 1007.65 1007.85 1008.05 1008.23 1008.40 1008.55 1008.68 1008.78 1008.86
1012.21 1012.32 1012.27 1012.04 1011.68 1011.21 1010.70 1010.19 1009.74 1009.35 1009.06 1008.84 1008.68 1008.55 1008.41 1008.25 1008.03 1007.77 1007.45 1007.09 1006.72 1006.36 1006.04 1005.77 1005.57 1005.46 1005.42 1005.47 1005.58 1005.75 1005.97 1006.21 1006.48 1006.75 1007.03 1007.30 1007.57 1007.83 1008.07 1008.30 1008.51 1008.69 1008.85 1008.98
1011.91 1012.01 1011.99 1011.82 1011.53 1011.15 1010.72 1010.29 1009.90 1009.58 1009.34 1009.17 1009.06 1008.97 1008.87 1008.73 1008.52 1008.23 1007.87 1007.44 1006.96 1006.48 1006.02 1005.61 1005.28 1005.05 1004.92 1004.90 1004.97 1005.13 1005.36 1005.64 1005.95 1006.28 1006.62 1006.96 1007.29 1007.60 1007.90 1008.18 1008.43 1008.66 1008.85 1009.02
1011.62 1011.74 1011.78 1011.72 1011.56 1011.33 1011.06 1010.78 1010.52 1010.31 1010.15 1010.05 1009.98 1009.91 1009.81 1009.64 1009.38 1009.03 1008.57 1008.02 1007.41 1006.78 1006.16 1005.59 1005.11 1004.74 1004.50 1004.39 1004.40 1004.53 1004.76 1005.06 1005.42 1005.80 1006.20 1006.60 1006.99 1007.36 1007.70 1008.03 1008.32 1008.58 1008.80 1009.01
1011.47 1011.63 1011.76 1011.84 1011.86 1011.82 1011.75 1011.65 1011.55 1011.47 1011.41 1011.36 1011.31 1011.23 1011.08 1010.85 1010.50 1010.04 1009.45 1008.76 1008.00 1007.21 1006.42 1005.69 1005.05 1004.53 1004.16 1003.95 1003.89 1003.97 1004.18 1004.48 1004.86 1005.28 1005.73 1006.18 1006.62 1007.05 1007.45 1007.81 1008.14 1008.44 1008.69 1008.92
1011.52 1011.76 1012.01 1012.24 1012.45 1012.61 1012.73 1012.81 1012.86 1012.89 1012.89 1012.87 1012.80 1012.67 1012.45 1012.12 1011.67 1011.08 1010.36 1009.53 1008.62 1007.68 1006.74 1005.85 1005.06 1004.41 1003.91 1003.58 1003.43 1003.44 1003.60 1003.88 1004.26 1004.70 1005.18 1005.67 1006.17 1006.65 1007.10 1007.51 1007.89 1008.22 1008.52 1008.79
1011.81 1012.14 1012.52 1012.90 1013.27 1013.60 1013.87 1014.08 1014.22 1014.30 1014.32 1014.28 1014.15 1013.94 1013.62 1013.18 1012.61 1011.91 1011.08 1010.14 1009.13 1008.07 1007.01 1006.01 1005.10 1004.32 1003.71 1003.27 1003.01 1002.94 1003.03 1003.26 1003.61 1004.04 1004.53 1005.06 1005.59 1006.12 1006.62 1007.10 1007.53 1007.92 1008.28 1008.60
1012.32 1012.75 1013.23 1013.73 1014.20 1014.63 1014.97 1015.23 1015.39 1015.45 1015.42 1015.29 1015.07 1014.74 1014.32 1013.77 1013.11 1012.33 1011.43 1010.44 1009.37 1008.27 1007.16 1006.09 1005.11 1004.25 1003.54 1003.00 1002.64 1002.47 1002.47 1002.63 1002.93 1003.33 1003.81 1004.34 1004.90 1005.47 1006.03 1006.57 1007.08 1007.55 1007.98 1008.38
1012.96 1013.48 1014.03 1014.59 1015.09 1015.52 1015.85 1016.05 1016.13 1016.09 1015.94 1015.68 1015.33 1014.88 1014.35 1013.73 1013.01 1012.20 1011.30 1010.32 1009.28 1008.20 1007.11 1006.05 1005.05 1004.15 1003.38 1002.77 1002.32 1002.05 1001.96 1002.03 1002.25 1002.59 1003.03 1003.56 1004.13 1004.74 1005.35 1005.96 1006.55 1007.11 1007.64 1008.13
1013.67 1014.23 1014.80 1015.33 1015.78 1016.13 1016.33 1016.39 1016.31 1016.10 1015.77 1015.35 1014.86 1014.30 1013.68 1013.01 1012.29 1011.51 1010.67 1009.78 1008.83 1007.85 1006.85 1005.86 1004.91 1004.02 1003.24 1002.57 1002.06 1001.70 1001.51 1001.49 1001.61 1001.88 1002.27 1002.77 1003.33 1003.96 1004.62 1005.29 1005.97 1006.63 1007.26 1007.86
1014.33 1014.89 1015.41 1015.85 1016.17 1016.34 1016.35 1016.20 1015.90 1015.48 1014.96 1014.36 1013.73 1013.07 1012.41 1011.73 1011.06 1010.36 1009.64 1008.89 1008.10 1007.27 1006.41 1005.54 1004.67 1003.85 1003.08 1002.41 1001.85 1001.42 1001.15 1001.03 1001.07 1001.25 1001.58 1002.02 1002.57 1003.20 1003.88 1004.61 1005.36 1006.11 1006.84 1007.55
Thickness
5799 5788 5784 5793 5798 5797 5798 5800 5803 5819 5833 5809 5796 5799 5816 5827 5818 5810 5804 5797 5789 5785 5784 5782 5782 5783 5783 5781 5779 5777 5774 5772 5769 5766 5764 5763 5764 5766 5767 5767 5767 5767 5766 5765
5787 5780 5796 5799 5798 5794 5794 5791 5795 5810 5822 5806 5793 5794 5809 5819 5816 5808 5800 5790 5783 5778 5775 5773 5772 5772 5771 5770 5770 5769 5766 5764 5761 5758 5755 5753 5753 5756 5757 5758 5759 5758 5757 5754
5776 5782 5793 5790 5788 5784 5786 5786 5787 5787 5793 5794 5783 5779 5797 5816 5814 5800 5793 5787 5780 5774 5769 5768 5767 5765 5765 5763 5763 5762 5759 5755 5751 5748 5746 5744 5745 5745 5745 5746 5748 5750 5750 5748
5779 5794 5785 5780 5782 5784 5770 5785 5778 5773 5765 5763 5772 5755 5784 5802 5789 5783 5779 5776 5772 5769 5766 5764 5761 5758 5756 5754 5754 5752 5751 5748 5745 5741 5737 5734 5733 5733 5738 5740 5743 5744 5744 5741
5776 5783 5776 5770 5777 5781 5772 5780 5771 5767 5760 5756 5766 5758 5778 5795 5770 5765 5765 5765 5765 5765 5762 5758 5755 5752 5749 5748 5745 5744 5742 5740 5739 5736 5733 5729 5728 5729 5731 5733 5734 5734 5735 5732
5776 5786 5782 5777 5784 5783 5776 5768 5765 5769 5763 5743 5756 5749 5760 5767 5764 5759 5757 5756 5758 5762 5761 5757 5755 5752 5747 5744 5740 5738 5734 5732 5732 5731 5728 5725 5723 5722 5722 5722 5722 5723 5722 5721
5762 5773 5784 5785 5769 5771 5765 5745 5733 5739 5747 5741 5748 5745 5759 5772 5779 5772 5762 5759 5760 5760 5757 5753 5749 5745 5741 5737 5735 5732 5728 5724 5722 5721 5719 5718 5716 5715 5715 5716 5715 5714 5711 5709
5745 5743 5770 5777 5765 5755 5755 5746 5723 5711 5719 5737 5755 5758 5777 5782 5781 5775 5769 5764 5759 5755 5753 5749 5745 5741 5736 5732 5729 5725 5720 5715 5713 5711 5709 5709 5708 5708 5709 5710 5708 5705 5701 5699
5745 5746 5775 5780 5776 5765 5750 5750 5758 5734 5729 5728 5748 5765 5770 5769 5763 5761 5759 5756 5752 5750 5747 5744 5741 5736 5730 5725 5720 5716 5710 5705 5703 5701 5699 5698 5697 5697 5699 5700 5699 5694 5689 5686
5759 5745 5765 5780 5775 5770 5761 5755 5743 5726 5710 5707 5726 5741 5745 5745 5748 5751 5750 5748 5747 5746 5744 5740 5733 5726 5720 5715 5709 5704 5700 5696 5693 5691 5688 5687 5685 5685 5686 5687 5684 5679 5674 5671
5762 5743 5750 5762 5759 5753 5754 5744 5740 5733 5725 5703 5698 5721 5761 5754 5754 5748 5746 5744 5740 5737 5734 5729 5723 5717 5711 5705 5699 5693 5691 5688 5685 5682 5679 5675 5673 5671 5671 5669 5666 5660 5656 5655
5758 5747 5735 5749 5770 5776 5764 5752 5741 5718 5713 5715 5705 5717 5763 5757 5753 5748 5743 5739 5734 5730 5727 5723 5717 5710 5702 5696 5690 5685 5684 5682 5679 5675 5670 5666 5662 5659 5657 5653 5648 5644 5641 5641
5747 5730 5716 5732 5750 5759 5750 5749 5746 5739 5727 5715 5704 5718 5761 5757 5751 5746 5740 5735 5730 5726 5723 5718 5712 5703 5695 5689 5683 5679 5678 5676 5673 5669 5664 5658 5654 5649 5645 5640 5635 5631 5629 5631
5752 5729 5716 5709 5722 5738 5738 5744 5748 5740 5723 5719 5721 5727 5742 5742 5739 5738 5735 5731 5727 5723 5720 5714 5708 5701 5693 5685 5678 5673 5671 5670 5668 5665 5659 5653 5648 5643 5639 5634 5629 5625 5623 5624
5750 5730 5731 5734 5740 5744 5743 5744 5745 5739 5734 5723 5726 5727 5732 5734 5732 5730 5727 5723 5718 5716 5714 5710 5704 5698 5691 5683 5675 5670 5667 5665 5663 5660 5656 5650 5646 5641 5636 5631 5626 5622 5620 5620
5750 5730 5726 5726 5737 5743 5745 5749 5747 5742 5740 5734 5728 5723 5732 5730 5726 5718 5713 5708 5705 5707 5709 5706 5700 5694 5687 5680 5673 5668 5664 5661 5660 5657 5653 5649 5644 5639 5633 5628 5623 5620 5618 5617
5738 5726 5717 5717 5733 5735 5729 5746 5745 5739 5737 5726 5711 5711 5717 5712 5706 5703 5702 5700 5698 5702 5703 5699 5695 5689 5684 5678 5672 5666 5661 5658 5656 5653 5651 5647 5642 5636 5631 5627 5622 5618 5616 5615
5735 5720 5713 5713 5715 5701 5735 5754 5748 5735 5725 5717 5708 5704 5700 5696 5696 5697 5696 5690 5687 5689 5689 5689 5687 5684 5681 5676 5671 5665 5660 5655 5651 5649 5648 5644 5639 5632 5627 5625 5620 5617 5616 5614
5741 5718 5707 5704 5702 5713 5731 5729 5722 5709 5698 5690 5687 5683 5683 5683 5684 5685 5683 5675 5674 5676 5678 5680 5683 5681 5677 5673 5668 5662 5655 5651 5647 5645 5645 5641 5635 5628 5623 5620 5617 5616 5614 5611
5735 5719 5702 5696 5684 5678 5702 5714 5714 5699 5680 5671 5667 5661 5659 5660 5651 5656 5660 5658 5658 5661 5666 5670 5676 5677 5672 5668 5664 5657 5651 5646 5643 5642 5642 5640 5633 5626 5621 5617 5615 5613 5610 5608
5718 5709 5697 5689 5683 5690 5684 5697 5692 5661 5645 5651 5649 5644 5639 5632 5628 5635 5640 5640 5638 5642 5647 5653 5657 5664 5666 5665 5659 5652 5648 5644 5643 5642 5641 5639 5633 5626 5620 5615 5612 5609 5606 5604
5712 5705 5700 5693 5677 5667 5666 5666 5641 5626 5630 5626 5621 5616 5612 5610 5611 5613 5614 5615 5617 5621 5628 5632 5635 5641 5652 5657 5654 5649 5645 5644 5643 5641 5639 5637 5633 5627 5621 5613 5609 5606 5603 5600
5711 5701 5694 5680 5657 5638 5637 5626 5615 5609 5602 5597 5591 5586 5585 5585 5583 5584 5588 5591 5596 5600 5605 5612 5616 5622 5631 5640 5644 5643 5643 5641 5639 5638 5637 5635 5632 5627 5623 5614 5608 5604 5601 5599
5701 5696 5686 5670 5644 5633 5620 5610 5600 5591 5582 5578 5572 5568 5566 5562 5559 5558 5562 5569 5575 5581 5587 5594 5601 5608 5616 5618 5624 5631 5636 5636 5634 5633 5633 5632 5628 5624 5620 5614 5609 5604 5601 5598
5666 5667 5657 5648 5625 5620 5608 5593 5584 5575 5568 5563 5559 5556 5552 5547 5543 5543 5546 5550 5555 5561 5568 5575 5583 5592 5603 5608 5605 5618 5627 5629 5628 5627 5628 5627 5624 5621 5617 5613 5609 5605 5604 5602
5648 5637 5625 5611 5600 5590 5583 5575 5567 5559 5553 5549 5545 5543 5540 5532 5526 5527 5529 5532 5535 5540 5547 5555 5564 5575 5588 5599 5600 5605 5617 5623 5622 5621 5622 5623 5621 5617 5614 5610 5605 5598 5602 5600